Weather History for KTYS - April, 2014

Change the Weather History Date:

Saturday, April 5, 2014

  Actual Average Record
Temperature  
Mean Temperature 51 °F 56 °F  
Max Temperature 59 °F 67 °F 87 °F (1934)
Min Temperature 42 °F 44 °F 24 °F (1881)
Degree Days  
Heating Degree Days 14 10  
Month to date heating degree days 21 52  
Since 1 July heating degree days 3601 3409  
Cooling Degree Days 0 1  
Month to date cooling degree days 5 3  
Year to date cooling degree days 5 8  
Moisture  
Dew Point 35 °F    
Average Humidity 59    
Maximum Humidity 77    
Minimum Humidity 40    
Precipitation  
Precipitation 0.00 in 0.13 in 3.19 in (1983)
Month to date precipitation 0.85 0.65  
Year to date precipitation 11.34 13.57  
Snow  
Snow 0.00 in 0.00 in - ()
Month to date snowfall 0.0 0.1  
Since 1 July snowfall 12.4 6.1  
Snow Depth 0.00 in    
Sea Level Pressure  
Sea Level Pressure 30.07 in    
Wind  
Wind Speed 8 mph (North)    
Max Wind Speed 14 mph    
Max Gust Speed 23 mph    
Visibility 10 miles    
Events      
T = Trace of Precipitation, MM = Missing Value Source: NWS Daily Summary

Daily Weather History Graph

Daily Weather History Graph

Search for Another Location

Airport or City:

Trip Planner

Search our weather history database for the weather conditions in past years. The results will help you decide how hot, cold, wet, or windy it might be!

Date:

Astronomy

Apr. 05, 2014 Rise Set
Actual Time 7:16 AM EDT 8:01 PM EDT
Civil Twilight 6:50 AM EDT 8:26 PM EDT
Nautical Twilight 6:20 AM EDT 8:57 PM EDT
Astronomical Twilight 5:48 AM EDT 9:29 PM EDT
Moon 11:30 AM EDT (4/5) 1:03 AM EDT (4/5)
Length of Visible Light 13h 36m
Length of Day
12h 44m
Waxing Crescent, 34% of the Moon is Illuminated
Apr 5
Waxing Crescent
Apr 7
First Quarter
Apr 15
Full
Apr 22
Last Quarter
Apr 29
New

Hourly Weather History & Observations

Time (EDT) Temp. Windchill Dew Point Humidity Pressure Visibility Wind Dir Wind Speed Gust Speed Precip Events Conditions
12:53 AM 54.0 °F - 44.1 °F 69% 29.97 in 10.0 mi WNW 8.1 mph - N/A   Partly Cloudy
1:53 AM 52.0 °F - 44.1 °F 74% 29.99 in 10.0 mi Variable 3.5 mph - N/A   Overcast
2:53 AM 48.9 °F - 39.0 °F 69% 30.02 in 10.0 mi North 6.9 mph - N/A   Mostly Cloudy
3:11 AM 48.2 °F - 39.2 °F 71% 30.04 in 10.0 mi North 8.1 mph - N/A   Scattered Clouds
3:53 AM 46.9 °F - 37.0 °F 68% 30.04 in 10.0 mi North 10.4 mph - N/A   Mostly Cloudy
4:53 AM 46.0 °F 42.5 °F 36.0 °F 68% 30.05 in 10.0 mi North 6.9 mph - N/A   Mostly Cloudy
5:53 AM 45.0 °F 39.3 °F 34.0 °F 65% 30.07 in 10.0 mi North 11.5 mph - N/A   Mostly Cloudy
6:53 AM 43.0 °F 37.7 °F 33.1 °F 68% 30.07 in 10.0 mi North 9.2 mph - N/A   Scattered Clouds
7:53 AM 42.1 °F 37.7 °F 33.1 °F 70% 30.09 in 10.0 mi North 6.9 mph - N/A   Scattered Clouds
8:53 AM 46.0 °F 41.0 °F 33.1 °F 61% 30.11 in 10.0 mi NNE 10.4 mph - N/A   Scattered Clouds
9:53 AM 46.9 °F - 32.0 °F 56% 30.12 in 10.0 mi North 10.4 mph - N/A   Scattered Clouds
10:53 AM 48.9 °F - 32.0 °F 52% 30.12 in 10.0 mi Variable 6.9 mph - N/A   Mostly Cloudy
11:53 AM 51.1 °F - 33.1 °F 50% 30.12 in 10.0 mi Variable 6.9 mph - N/A   Mostly Cloudy
12:53 PM 51.1 °F - 33.1 °F 50% 30.11 in 10.0 mi Variable 3.5 mph 17.3 mph N/A   Scattered Clouds
1:53 PM 54.0 °F - 34.0 °F 47% 30.10 in 10.0 mi North 12.7 mph 16.1 mph N/A   Scattered Clouds
2:53 PM 55.9 °F - 35.1 °F 45% 30.09 in 10.0 mi NNW 10.4 mph - N/A   Scattered Clouds
3:53 PM 57.9 °F - 33.1 °F 39% 30.06 in 10.0 mi NW 11.5 mph 16.1 mph N/A   Scattered Clouds
5:53 PM 57.9 °F - 33.1 °F 39% 30.05 in 10.0 mi NNE 10.4 mph - N/A   Scattered Clouds
6:53 PM 57.0 °F - 33.1 °F 40% 30.05 in 10.0 mi North 8.1 mph - N/A   Mostly Cloudy
7:53 PM 55.0 °F - 32.0 °F 42% 30.05 in 10.0 mi NNE 8.1 mph - N/A   Mostly Cloudy
8:53 PM 53.1 °F - 32.0 °F 45% 30.06 in 10.0 mi NE 5.8 mph - N/A   Mostly Cloudy
9:53 PM 52.0 °F - 32.0 °F 47% 30.08 in 10.0 mi North 4.6 mph - N/A   Mostly Cloudy
10:53 PM 51.1 °F - 33.1 °F 50% 30.08 in 10.0 mi North 9.2 mph - N/A   Clear
11:53 PM 50.0 °F - 33.1 °F 52% 30.06 in 10.0 mi North 5.8 mph - N/A   Mostly Cloudy